Location: Cahas Mountain Overlook
(37.0833°N, 80.1000°W)
Time: 19:29:41
(UTC-05:00)

Vanguard 3 - Pass Details

Date: 14 December 2023
Orbit: 508 x 3239 km, 33.4° (Epoch: 23 February)

Event Time Altitude Azimuth Distance (km) Brightness Sun altitude
Rises 19:28:51 0° 246° (WSW) 7,189 13.1 -28.0°
Reaches altitude 10° 19:33:47 10° 245° (WSW) 6,155 12.5 -29.0°
Maximum altitude 19:52:51 69° 167° (SSE) 2,764 9.6 -32.7°
Enters shadow 19:56:59 53° 109° (ESE) 2,804 9.4 -33.6°
